Location: Sungai Bunut
(2.6333°N, 113.7333°E)
Time: 21:54:36
(UTC+00:00)

Cosmos 1697 Rocket - Pass Details

Date: 29 May 2022
Orbit: 833 x 843 km, 71.0° (Epoch: 03 July)

Event Time Altitude Azimuth Distance (km) Brightness Sun altitude
Rises 11:09:07 0° 202° (SSW) 3,389 5.8 -9.8°
Reaches altitude 10° 11:11:35 10° 205° (SSW) 2,454 5.2 -10.4°
Maximum altitude 11:17:08 62° 285° (WNW) 938 3.3 -11.7°
Drops below altitude 10° 11:22:41 10° 6° (N) 2,450 5.3 -12.9°
Sets 11:25:09 0° 9° (N) 3,383 6.0 -13.5°
